DMSP 5D-2 F13 DEB, 40582

Orbit data source: Space-Track

DMSP 5D-2 F13 DEB, 40582 is space debris in SSO originally from a launch on Fri, 24 Mar 1995 UTC launched from the Air Force Western Test Range (AFWTR). Debris objects in space refer to the collection of defunct objects orbiting the Earth. Examples of debris include non-operational satellites, rocket bodies, and fragments generated from explosions, collisions, or faulty payload assembly.

Loading next visibility...
Identifier
40582, 1995-015ER
Orbit
SSO
Country
Flag of USUS
Related business
Manufacturer
Unknown
Mission
Spacecraft
Bus & Motor
Unknown
Mass
Unknown
Launch date (UTC)
1995-03-24 (31 years ago)
Launch vehicle
Unknown
Launch site
Air Force Western Test Range (AFWTR)
Object type
Payload
Rocket body
Debris
Shape & HBR
Unknown shape, 0.1 m
Radar Cross Section
Small (<0.1 m²)

Expand to show TLE details & history
Last TLE update: 1 day ago

TLE from 1 day ago
0 DMSP 5D-2 F13 DEB
1 40582U 95015ER  25341.51276916  .00016384  00000-0  66428-2 0  9991
2 40582  98.7186 244.0846 0079017 322.4513  37.1164 14.26037178547111
Epoch: 2025-12-07T12:18Z
TLE epoch observation values (Epoch: 2025-12-07T12:18:23.255Z)
Latitude
-0.00002°
Longitude
-17.03738°
Altitude
762.826 km
Speed
7.496 km/s
True Right ascension
16h 16m 20s
True Declination
0° 00' 00"
Sunlit
Object was in daylight at epoch
Visualization orbit readout
Latitude
Unknown
Longitude
Unknown
Altitude
Unknown
Speed
Unknown
Apparent Right ascension
Unknown
Apparent Declination
Unknown
Sunlit
N/A
Visualization observer readout
Local Sidereal Time
17:57:30
Azimuth
Unknown
Elevation
Unknown
Doppler factor
Unknown
Orbital elements
Apogee altitude
858.895 km
Perigee altitude
745.422 km
Semi-major axis
7,180.295 km
Eccentricity
0.0079
Inclination
98.7186°
RAAN
244.0846°
Arg. of periapsis
322.4513°
True anomaly
37.66712°
Mean anomaly
37.1164°
Eccentric anomaly
37.39133°
Mean motion
3.56722 °/min
Orbital period
100.92 mins
BSTAR
0.0066428
Loading maneuver chart data...
Computing Atmospheric mass density...

Documentation

Showing up to 5 results
|